| time (UTC) | temp C | wind direction | speed KPH | gust KPH | rain 1hr cm | rain 24hr cm | rain mn cm | humidity % | barometer mb |
| 20260504214950 | 23 | 272 | 6.4 | 9.7 | 0.00 | 0.00 | 0.00 | 34 | 1001.0 |
| 20260504214446 | 23 | 208 | 3.2 | 4.8 | 0.00 | 0.00 | 0.00 | 36 | 1001.2 |
| 20260504213943 | 23 | 169 | 4.8 | 4.8 | 0.00 | 0.00 | 0.00 | 36 | 1001.2 |
| 20260504213439 | 23 | 255 | 1.6 | 1.6 | 0.00 | 0.00 | 0.00 | 36 | 1001.2 |
| 20260504212937 | 23 | 265 | 3.2 | 4.8 | 0.00 | 0.00 | 0.00 | 36 | 1001.3 |
| 20260504212432 | 23 | 201 | 8.0 | 11.3 | 0.00 | 0.00 | 0.00 | 34 | 1001.2 |
| 20260504211931 | 23 | 291 | 1.6 | 1.6 | 0.00 | 0.00 | 0.00 | 37 | 1001.2 |
| 20260504211426 | 23 | 255 | 3.2 | 4.8 | 0.00 | 0.00 | 0.00 | 35 | 1001.2 |
| 20260504210924 | 23 | 253 | 3.2 | 3.2 | 0.00 | 0.00 | 0.00 | 38 | 1001.3 |
| 20260504210421 | 23 | 294 | 6.4 | 9.7 | 0.00 | 0.00 | 0.00 | 38 | 1001.3 |
| 20260504205918 | 23 | 267 | 3.2 | 4.8 | 0.00 | 0.00 | 0.00 | 38 | 1001.5 |
| 20260504205416 | 23 | 314 | 4.8 | 4.8 | 0.00 | 0.00 | 0.00 | 37 | 1001.3 |
| 20260504204914 | 23 | 199 | 6.4 | 9.7 | 0.00 | 0.00 | 0.00 | 35 | 1001.5 |
| 20260504204412 | 23 | 225 | 4.8 | 8.0 | 0.00 | 0.00 | 0.00 | 37 | 1001.7 |
| 20260504203911 | 23 | 271 | 4.8 | 4.8 | 0.00 | 0.00 | 0.00 | 36 | 1001.5 |
| 20260504203408 | 23 | 221 | 8.0 | 9.7 | 0.00 | 0.00 | 0.00 | 36 | 1001.7 |
| 20260504202903 | 23 | 311 | 1.6 | 3.2 | 0.00 | 0.00 | 0.00 | 36 | 1001.6 |
| 20260504202400 | 23 | 285 | 3.2 | 4.8 | 0.00 | 0.00 | 0.00 | 35 | 1001.8 |
| 20260504201857 | 23 | 330 | 3.2 | 8.0 | 0.00 | 0.00 | 0.00 | 37 | 1002.0 |
| 20260504201354 | 23 | 260 | 3.2 | 3.2 | 0.00 | 0.00 | 0.00 | 35 | 1001.8 |
| 20260504200852 | 23 | 270 | 3.2 | 3.2 | 0.00 | 0.00 | 0.00 | 37 | 1002.1 |
| 20260504200348 | 23 | 330 | 1.6 | 1.6 | 0.00 | 0.00 | 0.00 | 39 | 1002.1 |
| 20260504195845 | 23 | 303 | 1.6 | 3.2 | 0.00 | 0.00 | 0.00 | 37 | 1002.2 |
| 20260504195340 | 23 | 268 | 3.2 | 4.8 | 0.00 | 0.00 | 0.00 | 36 | 1002.4 |
| 20260504194837 | 23 | 231 | 14.5 | 24.1 | 0.00 | 0.00 | 0.00 | 36 | 1002.3 |
| 20260504194333 | 23 | 62 | 6.4 | 9.7 | 0.00 | 0.00 | 0.00 | 36 | 1002.4 |
| 20260504193829 | 23 | 196 | 3.2 | 3.2 | 0.00 | 0.00 | 0.00 | 39 | 1002.7 |
| 20260504193327 | 23 | 253 | 1.6 | 1.6 | 0.00 | 0.00 | 0.00 | 39 | 1002.5 |
| 20260504192826 | 22 | 337 | 4.8 | 4.8 | 0.00 | 0.00 | 0.00 | 41 | 1002.5 |
| 20260504192323 | 23 | 196 | 4.8 | 8.0 | 0.00 | 0.00 | 0.00 | 38 | 1002.5 |
| 20260504191821 | 22 | 212 | 4.8 | 4.8 | 0.00 | 0.00 | 0.00 | 39 | 1002.8 |
| 20260504191319 | 23 | 257 | 4.8 | 8.0 | 0.00 | 0.00 | 0.00 | 42 | 1002.7 |
| 20260504190814 | 23 | 327 | 8.0 | 11.3 | 0.00 | 0.00 | 0.00 | 42 | 1002.9 |
| 20260504190310 | 23 | 108 | 9.7 | 12.9 | 0.00 | 0.00 | 0.00 | 38 | 1002.8 |
| 20260504185807 | 23 | 215 | 4.8 | 8.0 | 0.00 | 0.00 | 0.00 | 43 | 1002.8 |
| 20260504185305 | 23 | 272 | 6.4 | 8.0 | 0.00 | 0.00 | 0.00 | 41 | 1002.9 |
| 20260504184800 | 23 | 272 | 1.6 | 3.2 | 0.00 | 0.00 | 0.00 | 44 | 1003.1 |
| 20260504184256 | 23 | 346 | 9.7 | 16.1 | 0.00 | 0.00 | 0.00 | 40 | 1003.1 |
| 20260504183752 | 22 | 347 | 4.8 | 4.8 | 0.00 | 0.00 | 0.00 | 46 | 1003.1 |
| 20260504183249 | 23 | 260 | 3.2 | 3.2 | 0.00 | 0.00 | 0.00 | 43 | 1003.2 |
| 20260504182747 | 22 | 8 | 4.8 | 9.7 | 0.00 | 0.00 | 0.00 | 44 | 1003.2 |
| 20260504182244 | 22 | 218 | 1.6 | 3.2 | 0.00 | 0.00 | 0.00 | 43 | 1003.3 |
| 20260504181742 | 22 | 311 | 9.7 | 14.5 | 0.00 | 0.00 | 0.00 | 43 | 1003.3 |
| 20260504181239 | 22 | 258 | 1.6 | 3.2 | 0.00 | 0.00 | 0.00 | 42 | 1003.2 |
| 20260504180738 | 22 | 276 | 8.0 | 12.9 | 0.00 | 0.00 | 0.00 | 43 | 1003.2 |
| 20260504180236 | 22 | 187 | 8.0 | 11.3 | 0.00 | 0.00 | 0.00 | 43 | 1003.5 |
| 20260504175733 | 22 | 259 | 3.2 | 3.2 | 0.00 | 0.00 | 0.00 | 44 | 1003.5 |
| 20260504175230 | 22 | 263 | 1.6 | 3.2 | 0.00 | 0.00 | 0.00 | 46 | 1003.5 |
| 20260504174728 | 21 | 284 | 1.6 | 1.6 | 0.00 | 0.00 | 0.00 | 48 | 1003.5 |
| 20260504174226 | 21 | 278 | 1.6 | 3.2 | 0.00 | 0.00 | 0.00 | 48 | 1003.4 |
| 20260504173721 | 21 | 285 | 1.6 | 3.2 | 0.00 | 0.00 | 0.00 | 48 | 1003.5 |
| 20260504173219 | 22 | 298 | 3.2 | 8.0 | 0.00 | 0.00 | 0.00 | 47 | 1003.6 |
| 20260504172715 | 22 | 297 | 3.2 | 4.8 | 0.00 | 0.00 | 0.00 | 47 | 1003.5 |
| 20260504172212 | 21 | 199 | 11.3 | 14.5 | 0.00 | 0.00 | 0.00 | 47 | 1003.7 |
| 20260504171708 | 21 | 96 | 8.0 | 11.3 | 0.00 | 0.00 | 0.00 | 46 | 1003.5 |
| 20260504171206 | 21 | 184 | 6.4 | 9.7 | 0.00 | 0.00 | 0.00 | 47 | 1003.6 |
| 20260504170702 | 20 | 218 | 6.4 | 8.0 | 0.00 | 0.00 | 0.00 | 48 | 1003.5 |
| 20260504170200 | 20 | 213 | 4.8 | 4.8 | 0.00 | 0.00 | 0.00 | 49 | 1003.5 |
| 20260504160118 | 19 | 188 | 8.0 | 11.3 | 0.00 | 0.00 | 0.00 | 49 | 1004.2 |
| 20260504151045 | 18 | 217 | 8.0 | 9.7 | 0.00 | 0.00 | 0.00 | 52 | 1004.8 |
| 20260504150543 | 18 | 284 | 3.2 | 4.8 | 0.00 | 0.00 | 0.00 | 50 | 1004.5 |
| 20260504141008 | 16 | 216 | 3.2 | 3.2 | 0.00 | 0.00 | 0.00 | 53 | 1004.5 |
| 20260504140505 | 16 | 197 | 11.3 | 12.9 | 0.00 | 0.00 | 0.00 | 53 | 1004.7 |
| 20260504130429 | 14 | 226 | 6.4 | 11.3 | 0.00 | 0.00 | 0.00 | 55 | 1005.2 |
| 20260504110317 | 10 | 225 | 4.8 | 8.0 | 0.00 | 0.00 | 0.00 | 60 | 1005.4 |
| 20260504100234 | 10 | 260 | 1.6 | 1.6 | 0.00 | 0.00 | 0.00 | 61 | 1005.1 |
| 20260504081628 | 10 | 260 | 0.0 | 0.0 | 0.00 | 0.00 | 0.00 | 61 | 1005.9 |
| 20260504081123 | 10 | 260 | 1.6 | 1.6 | 0.00 | 0.00 | 0.00 | 61 | 1005.8 |
| 20260504080620 | 10 | 257 | 1.6 | 1.6 | 0.00 | 0.00 | 0.00 | 61 | 1005.8 |
| 20260504080117 | 10 | 264 | 1.6 | 1.6 | 0.00 | 0.00 | 0.00 | 61 | 1005.9 |
| 20260504050433 | 10 | 261 | 0.0 | 0.0 | 0.00 | 0.00 | 0.00 | 62 | 1006.9 |
| 20260504045930 | 10 | 214 | 1.6 | 1.6 | 0.00 | 0.00 | 0.00 | 61 | 1007.1 |
| 20260504045426 | 10 | 258 | 0.0 | 0.0 | 0.00 | 0.00 | 0.00 | 61 | 1006.9 |
| 20260504044922 | 10 | 248 | 1.6 | 1.6 | 0.00 | 0.00 | 0.00 | 61 | 1007.0 |
| 20260504044420 | 10 | 229 | 0.0 | 1.6 | 0.00 | 0.00 | 0.00 | 60 | 1006.7 |
| 20260504043917 | 10 | 240 | 0.0 | 1.6 | 0.00 | 0.00 | 0.00 | 60 | 1006.9 |
| 20260504043414 | 10 | 227 | 1.6 | 1.6 | 0.00 | 0.00 | 0.00 | 59 | 1007.0 |
| 20260504042912 | 10 | 244 | 0.0 | 1.6 | 0.00 | 0.00 | 0.00 | 59 | 1007.1 |
| 20260504042408 | 11 | 185 | 1.6 | 3.2 | 0.00 | 0.00 | 0.00 | 59 | 1007.0 |
| 20260504041904 | 11 | 268 | 1.6 | 1.6 | 0.00 | 0.00 | 0.00 | 58 | 1006.9 |
| 20260504041400 | 11 | 240 | 4.8 | 8.0 | 0.00 | 0.00 | 0.00 | 57 | 1007.2 |
| 20260504040856 | 11 | 230 | 3.2 | 4.8 | 0.00 | 0.00 | 0.00 | 57 | 1006.9 |
| 20260504040354 | 11 | 219 | 4.8 | 4.8 | 0.00 | 0.00 | 0.00 | 58 | 1007.1 |
| 20260504035850 | 11 | 208 | 4.8 | 8.0 | 0.00 | 0.00 | 0.00 | 57 | 1007.0 |
| 20260504035348 | 11 | 226 | 3.2 | 3.2 | 0.00 | 0.00 | 0.00 | 57 | 1007.0 |
| 20260504034844 | 11 | 258 | 3.2 | 4.8 | 0.00 | 0.00 | 0.00 | 56 | 1007.0 |
| 20260504034342 | 11 | 253 | 6.4 | 9.7 | 0.00 | 0.00 | 0.00 | 56 | 1006.9 |
| 20260504033838 | 12 | 253 | 1.6 | 1.6 | 0.00 | 0.00 | 0.00 | 56 | 1007.1 |
| 20260504033337 | 12 | 256 | 1.6 | 1.6 | 0.00 | 0.00 | 0.00 | 55 | 1006.7 |
| 20260504032833 | 12 | 261 | 1.6 | 1.6 | 0.00 | 0.00 | 0.00 | 55 | 1006.9 |
| 20260504032330 | 12 | 254 | 1.6 | 1.6 | 0.00 | 0.00 | 0.00 | 55 | 1007.0 |
| 20260504031827 | 12 | 259 | 3.2 | 3.2 | 0.00 | 0.00 | 0.00 | 54 | 1006.9 |
| 20260504031324 | 12 | 329 | 3.2 | 4.8 | 0.00 | 0.00 | 0.00 | 54 | 1006.9 |
| 20260504030820 | 12 | 250 | 3.2 | 3.2 | 0.00 | 0.00 | 0.00 | 54 | 1007.0 |
| 20260504030318 | 12 | 261 | 3.2 | 3.2 | 0.00 | 0.00 | 0.00 | 55 | 1007.1 |
| 20260504025814 | 12 | 223 | 4.8 | 4.8 | 0.00 | 0.00 | 0.00 | 55 | 1006.7 |
| 20260504025311 | 12 | 142 | 4.8 | 4.8 | 0.00 | 0.00 | 0.00 | 54 | 1006.7 |
| 20260504024808 | 12 | 258 | 3.2 | 4.8 | 0.00 | 0.00 | 0.00 | 55 | 1006.6 |
| 20260504024304 | 12 | 265 | 1.6 | 1.6 | 0.00 | 0.00 | 0.00 | 55 | 1007.0 |
| 20260504023801 | 12 | 308 | 6.4 | 9.7 | 0.00 | 0.00 | 0.00 | 55 | 1007.2 |
| 20260504023257 | 12 | 160 | 1.6 | 1.6 | 0.00 | 0.00 | 0.00 | 55 | 1007.2 |
| 20260504022753 | 12 | 206 | 9.7 | 12.9 | 0.00 | 0.00 | 0.00 | 54 | 1007.1 |
| 20260504022250 | 12 | 309 | 0.0 | 1.6 | 0.00 | 0.00 | 0.00 | 54 | 1007.3 |
| 20260504021747 | 12 | 218 | 1.6 | 3.2 | 0.00 | 0.00 | 0.00 | 54 | 1007.3 |
| 20260504021244 | 12 | 254 | 1.6 | 1.6 | 0.00 | 0.00 | 0.00 | 53 | 1007.4 |
| 20260504020741 | 12 | 296 | 6.4 | 8.0 | 0.00 | 0.00 | 0.00 | 53 | 1007.4 |
| 20260504020237 | 12 | 226 | 1.6 | 1.6 | 0.00 | 0.00 | 0.00 | 53 | 1007.3 |
| 20260504015733 | 12 | 258 | 1.6 | 1.6 | 0.00 | 0.00 | 0.00 | 54 | 1007.4 |
| 20260504015230 | 11 | 177 | 3.2 | 4.8 | 0.00 | 0.00 | 0.00 | 55 | 1007.5 |
| 20260504014726 | 11 | 260 | 0.0 | 0.0 | 0.00 | 0.00 | 0.00 | 56 | 1007.3 |
| 20260504014223 | 11 | 265 | 0.0 | 1.6 | 0.00 | 0.00 | 0.00 | 57 | 1007.3 |
| 20260504013721 | 11 | 277 | 0.0 | 1.6 | 0.00 | 0.00 | 0.00 | 59 | 1007.4 |
| 20260504013218 | 11 | 242 | 1.6 | 1.6 | 0.00 | 0.00 | 0.00 | 59 | 1007.3 |
| 20260504012714 | 11 | 265 | 1.6 | 1.6 | 0.00 | 0.00 | 0.00 | 58 | 1007.6 |
| 20260504012213 | 12 | 268 | 1.6 | 3.2 | 0.00 | 0.00 | 0.00 | 58 | 1007.8 |
| 20260504011709 | 11 | 261 | 0.0 | 1.6 | 0.00 | 0.00 | 0.00 | 56 | 1007.8 |
| 20260504011206 | 11 | 269 | 0.0 | 1.6 | 0.00 | 0.00 | 0.00 | 57 | 1007.5 |
| 20260504010702 | 11 | 257 | 3.2 | 4.8 | 0.00 | 0.00 | 0.00 | 58 | 1007.7 |
| 20260504010157 | 11 | 238 | 4.8 | 8.0 | 0.00 | 0.00 | 0.00 | 57 | 1007.6 |
| 20260504005654 | 11 | 255 | 1.6 | 3.2 | 0.00 | 0.00 | 0.00 | 58 | 1007.7 |
| 20260504005151 | 11 | 218 | 4.8 | 9.7 | 0.00 | 0.00 | 0.00 | 58 | 1007.6 |
| 20260504004649 | 12 | 266 | 1.6 | 3.2 | 0.00 | 0.00 | 0.00 | 59 | 1007.5 |
| 20260504004146 | 11 | 242 | 8.0 | 12.9 | 0.00 | 0.00 | 0.00 | 57 | 1007.9 |
| 20260504003642 | 11 | 308 | 8.0 | 16.1 | 0.00 | 0.00 | 0.00 | 58 | 1007.9 |
| 20260504003139 | 11 | 307 | 4.8 | 4.8 | 0.00 | 0.00 | 0.00 | 58 | 1008.3 |
| 20260504002636 | 11 | 229 | 3.2 | 4.8 | 0.00 | 0.00 | 0.00 | 57 | 1008.2 |
| 20260504002134 | 12 | 269 | 3.2 | 3.2 | 0.00 | 0.00 | 0.00 | 57 | 1008.0 |
| 20260504001631 | 12 | 269 | 3.2 | 4.8 | 0.00 | 0.00 | 0.00 | 55 | 1008.0 |
| 20260504001127 | 12 | 276 | 4.8 | 4.8 | 0.00 | 0.00 | 0.00 | 55 | 1007.9 |
| 20260504000625 | 12 | 294 | 16.1 | 35.4 | 0.00 | 0.00 | 0.00 | 54 | 1007.9 |
| 20260504000122 | 12 | 274 | 6.4 | 9.7 | 0.00 | 0.00 | 0.00 | 54 | 1007.8 |
| 20260503235620 | 12 | 310 | 4.8 | 9.7 | 0.00 | 0.00 | 0.00 | 54 | 1007.8 |
| 20260503235116 | 12 | 280 | 1.6 | 1.6 | 0.00 | 0.00 | 0.00 | 54 | 1007.8 |
| 20260503234614 | 12 | 352 | 4.8 | 8.0 | 0.00 | 0.00 | 0.00 | 53 | 1007.8 |
| 20260503234112 | 12 | 306 | 3.2 | 3.2 | 0.00 | 0.00 | 0.00 | 53 | 1007.5 |
| 20260503233609 | 12 | 274 | 4.8 | 9.7 | 0.00 | 0.00 | 0.00 | 55 | 1007.5 |
| 20260503233104 | 12 | 187 | 4.8 | 4.8 | 0.00 | 0.00 | 0.00 | 54 | 1007.8 |
| 20260503232602 | 12 | 340 | 4.8 | 8.0 | 0.00 | 0.00 | 0.00 | 52 | 1008.1 |
| 20260503232059 | 12 | 272 | 6.4 | 8.0 | 0.00 | 0.00 | 0.00 | 52 | 1007.9 |
| 20260503231557 | 12 | 309 | 8.0 | 12.9 | 0.00 | 0.00 | 0.00 | 51 | 1007.7 |
| 20260503231053 | 12 | 6 | 3.2 | 3.2 | 0.00 | 0.00 | 0.00 | 51 | 1007.3 |
| 20260503230549 | 13 | 302 | 4.8 | 4.8 | 0.00 | 0.00 | 0.00 | 52 | 1007.6 |
| 20260503230047 | 13 | 278 | 6.4 | 9.7 | 0.00 | 0.00 | 0.00 | 50 | 1007.7 |
| 20260503225544 | 13 | 92 | 11.3 | 14.5 | 0.00 | 0.00 | 0.00 | 50 | 1007.4 |
| 20260503225039 | 13 | 119 | 4.8 | 8.0 | 0.00 | 0.00 | 0.00 | 49 | 1007.2 |
| 20260503224537 | 13 | 258 | 1.6 | 3.2 | 0.00 | 0.00 | 0.00 | 48 | 1007.2 |
| 20260503224035 | 13 | 288 | 8.0 | 11.3 | 0.00 | 0.00 | 0.00 | 48 | 1007.4 |
| 20260503223533 | 13 | 326 | 3.2 | 8.0 | 0.00 | 0.00 | 0.00 | 46 | 1007.2 |
| 20260503223028 | 13 | 289 | 3.2 | 3.2 | 0.00 | 0.00 | 0.00 | 47 | 1007.1 |
| 20260503222526 | 13 | 261 | 3.2 | 3.2 | 0.00 | 0.00 | 0.00 | 44 | 1007.0 |
| 20260503222024 | 13 | 327 | 3.2 | 4.8 | 0.00 | 0.00 | 0.00 | 46 | 1007.1 |
| 20260503221522 | 13 | 118 | 3.2 | 3.2 | 0.00 | 0.00 | 0.00 | 45 | 1007.3 |
| 20260503221019 | 13 | 265 | 6.4 | 9.7 | 0.00 | 0.00 | 0.00 | 46 | 1007.6 |
| 20260503220515 | 13 | 304 | 1.6 | 3.2 | 0.00 | 0.00 | 0.00 | 47 | 1007.3 |
| 20260503220012 | 13 | 318 | 8.0 | 9.7 | 0.00 | 0.00 | 0.00 | 47 | 1007.2 |
| 20260503215509 | 13 | 280 | 1.6 | 1.6 | 0.00 | 0.00 | 0.00 | 46 | 1007.5 |